EW5627 Weather Reports


Display with metric or nautical units.
time (UTC)temp
F
wind
direction
speed
MPH
gust
MPH
rain 1hr
in
rain 24hr
in
rain mn
in
humidity
%
barometer
mb
20260508134550 50 263 0.0 0.0 0.00 0.04 0.04 71 1011.3
20260508133050 49 239 0.0 0.0 0.00 0.04 0.04 72 1011.4
20260508131554 49 265 0.0 0.0 0.00 0.04 0.04 78 1011.5
20260508130056 48 175 0.0 0.0 0.00 0.04 0.04 81 1011.4
20260508124545 47 205 0.0 0.0 0.00 0.04 0.04 84 1011.5
20260508123045 46 244 0.0 0.0 0.00 0.04 0.04 87 1011.7
20260508121543 46 291 0.0 0.0 0.00 0.04 0.04 91 1011.7
20260508120044 45 303 0.0 0.0 0.00 0.04 0.04 91 1011.6
20260508114538 44 304 0.0 0.0 0.00 0.04 0.04 92 1011.4
20260508113044 43 304 0.0 0.0 0.00 0.04 0.04 91 1011.2
20260508111536 43 304 0.0 0.0 0.00 0.04 0.04 91 1011.2
20260508110046 43 304 0.0 0.0 0.00 0.04 0.04 91 1011.1
20260508104529 43 304 0.0 0.0 0.00 0.04 0.04 90 1011.0
20260508103035 43 304 0.0 0.0 0.00 0.04 0.04 90 1010.9
20260508101534 43 304 0.0 0.0 0.00 0.04 0.04 90 1010.8
20260508100023 43 304 0.0 0.0 0.00 0.04 0.04 90 1010.7
20260508094522 43 304 0.0 0.0 0.00 0.04 0.04 89 1010.6
20260508093038 43 295 0.0 0.0 0.00 0.04 0.04 89 1010.5
20260508091523 43 295 0.0 0.0 0.00 0.04 0.04 89 1010.3
20260508090028 44 295 0.0 0.0 0.00 0.04 0.04 89 1010.2
20260508084518 43 296 0.0 0.0 0.00 0.09 0.04 89 1010.0
20260508083024 43 294 0.0 0.0 0.00 0.09 0.04 88 1010.2
20260508081516 43 294 0.0 0.0 0.00 0.09 0.04 88 1010.1
20260508080016 43 294 0.0 0.0 0.01 0.09 0.04 88 1010.1
20260508074516 44 294 0.0 0.0 0.01 0.16 0.04 88 1010.1
20260508073011 44 291 0.0 0.0 0.02 0.16 0.04 87 1010.4
20260508071508 45 290 0.0 0.0 0.04 0.16 0.04 85 1010.4
20260508070006 45 290 0.0 0.0 0.03 0.15 0.03 82 1010.7
20260508064509 46 290 0.0 0.0 0.03 0.22 0.03 79 1010.8
20260508063100 47 288 0.0 0.0 0.02 0.21 0.02 74 1010.8
20260508061606 49 267 0.0 0.0 0.00 0.19 0.00 62 1010.5
20260508060051 49 257 0.0 0.0 0.00 0.19 0.00 55 1010.0
20260508054609 49 360 0.0 1.0 0.00 0.21 0.00 51 1008.5
20260508053047 49 51 0.0 1.0 0.00 0.21 0.00 53 1008.5
20260508051545 49 58 0.0 0.0 0.00 0.21 0.00 53 1008.4
20260508050048 49 17 0.0 0.0 0.00 0.21 0.00 53 1008.5
20260508044555 49 42 0.0 0.0 0.00 0.21 0.00 55 1008.3
20260508043043 49 68 0.0 0.0 0.00 0.21 0.00 56 1008.2
20260508041550 49 65 0.0 0.0 0.00 0.21 0.00 55 1008.4
20260508040042 50 67 0.0 0.0 0.00 0.21 0.00 54 1008.4
20260508034539 50 67 0.0 1.0 0.00 0.21 0.21 54 1008.4
20260508033038 51 13 0.0 1.0 0.00 0.21 0.21 52 1008.5
20260508031541 51 11 0.0 0.0 0.00 0.21 0.21 51 1008.3
20260508030040 51 15 0.0 0.0 0.00 0.21 0.21 51 1008.3
20260508024533 52 15 0.0 0.0 0.00 0.21 0.21 51 1008.4
20260508023041 52 15 0.0 0.0 0.00 0.21 0.21 49 1008.5
20260508021535 52 15 0.0 0.0 0.00 0.21 0.21 49 1008.3
20260508020031 52 14 0.0 0.0 0.00 0.21 0.21 48 1008.3
20260508014534 53 14 0.0 0.0 0.00 0.22 0.21 49 1008.2
20260508013030 53 12 0.0 0.0 0.00 0.22 0.21 47 1008.3
20260508011532 53 12 0.0 0.0 0.00 0.22 0.21 45 1008.2
20260508010038 54 12 0.0 0.0 0.00 0.22 0.21 46 1008.1
20260508004531 54 12 0.0 0.0 0.00 0.22 0.21 44 1007.9
20260508003028 54 12 0.0 0.0 0.00 0.22 0.21 46 1007.6
20260508001533 55 12 0.0 0.0 0.00 0.22 0.21 44 1007.5
20260508000028 56 12 0.0 0.0 0.00 0.22 0.21 43 1007.3
20260507234534 56 12 0.0 0.0 0.00 0.22 0.21 41 1007.3
20260507233026 57 12 0.0 0.0 0.00 0.22 0.21 40 1007.0
20260507231525 58 223 0.0 0.0 0.00 0.22 0.21 41 1006.9
20260507230025 58 332 0.0 0.0 0.00 0.22 0.21 39 1006.9
20260507224543 59 267 0.0 0.0 0.00 0.22 0.21 39 1006.8
20260507223024 60 355 0.0 0.0 0.00 0.22 0.21 39 1006.8
20260507221533 61 53 0.0 0.0 0.00 0.22 0.21 37 1006.7
20260507220027 62 229 0.0 0.0 0.00 0.22 0.21 39 1006.8
20260507214524 63 117 0.0 0.0 0.00 0.22 0.21 37 1006.6
20260507213029 63 20 0.0 0.0 0.00 0.22 0.21 35 1006.6
20260507211520 62 209 0.0 0.0 0.00 0.22 0.21 38 1006.5
20260507210041 63 17 0.0 0.0 0.00 0.22 0.21 43 1006.4
20260507204518 65 306 0.0 0.0 0.00 0.26 0.21 37 1006.4
20260507203022 66 140 0.0 0.0 0.00 0.26 0.21 35 1006.4
20260507201517 65 79 0.0 0.0 0.00 0.26 0.21 38 1006.3
20260507200021 65 207 0.0 0.0 0.00 0.26 0.21 39 1006.5
20260507194511 64 346 0.0 2.0 0.00 0.35 0.21 37 1006.6
20260507193013 64 40 0.0 1.0 0.00 0.35 0.21 45 1006.7
20260507191516 64 189 0.0 0.0 0.00 0.35 0.21 37 1007.0
20260507190005 63 59 0.0 0.0 0.00 0.35 0.21 40 1007.0
20260507184505 63 221 0.0 0.0 0.00 0.35 0.21 40 1007.1
20260507183005 63 349 0.0 0.0 0.00 0.35 0.21 35 1007.5
20260507181502 63 130 0.0 0.0 0.00 0.35 0.21 41 1007.6
20260507180001 62 16 0.0 0.0 0.00 0.35 0.21 46 1007.7
20260507174502 63 234 0.0 1.0 0.00 0.39 0.21 40 1007.9
20260507173005 63 190 0.0 0.0 0.00 0.39 0.21 42 1008.0
20260507171603 63 336 0.0 0.0 0.00 0.39 0.21 40 1008.2
20260507170058 63 165 0.0 0.0 0.00 0.39 0.21 45 1008.6
20260507164604 62 246 0.0 1.0 0.00 0.40 0.21 41 1008.6
20260507163052 62 213 0.0 0.0 0.00 0.40 0.21 45 1008.9
20260507161604 61 61 0.0 1.0 0.00 0.40 0.21 47 1008.9
20260507160146 60 244 0.0 0.0 0.00 0.40 0.21 51 1009.0
20260507154541 59 275 0.0 1.0 0.00 0.40 0.21 52 1009.2
20260507153037 58 11 0.0 1.0 0.00 0.40 0.21 51 1009.5
20260507151532 57 5 0.0 1.0 0.00 0.40 0.21 53 1009.7
20260507150030 56 34 0.0 0.0 0.00 0.40 0.21 57 1009.6
20260507144540 55 323 0.0 0.0 0.00 0.40 0.21 65 1009.4
20260507143022 53 253 0.0 6.0 0.00 0.40 0.21 71 1009.4
20260507141525 53 258 0.0 1.0 0.00 0.40 0.21 76 1009.5
20260507140018 52 188 0.0 2.0 0.00 0.40 0.21 75 1009.5